TimeEDT,TemperatureF,Dew PointF,Humidity,Sea Level PressureIn,VisibilityMPH,Wind Direction,Wind SpeedMPH,Gust SpeedMPH,PrecipitationIn,Events,Conditions,WindDirDegrees,DateUTC
12:53 AM,77.0,75.0,94,29.99,10.0,ENE,5.8,-,N/A,,Clear,70,2013-09-20 04:53:00
1:53 AM,75.9,75.0,97,29.98,10.0,ENE,3.5,-,N/A,,Clear,70,2013-09-20 05:53:00
2:53 AM,75.9,75.0,97,29.98,10.0,NE,6.9,-,N/A,,Clear,50,2013-09-20 06:53:00
3:53 AM,75.0,73.9,96,29.97,9.0,NE,5.8,-,N/A,,Clear,50,2013-09-20 07:53:00
4:53 AM,75.9,73.9,94,29.96,10.0,NNE,4.6,-,N/A,,Clear,30,2013-09-20 08:53:00
5:53 AM,75.0,73.9,96,29.98,9.0,ENE,5.8,-,N/A,,Clear,70,2013-09-20 09:53:00
6:53 AM,75.0,73.9,96,29.97,9.0,NE,5.8,-,N/A,,Clear,50,2013-09-20 10:53:00
7:53 AM,75.0,73.0,94,29.98,9.0,ENE,8.1,-,N/A,,Clear,60,2013-09-20 11:53:00
8:53 AM,79.0,73.0,82,29.99,10.0,ENE,8.1,-,N/A,,Clear,60,2013-09-20 12:53:00
9:53 AM,82.0,72.0,71,30.00,10.0,NE,11.5,-,N/A,,Clear,40,2013-09-20 13:53:00
10:53 AM,84.0,71.1,65,30.01,10.0,East,9.2,-,N/A,,Clear,80,2013-09-20 14:53:00
11:53 AM,86.0,70.0,59,30.00,10.0,East,8.1,-,N/A,,Clear,80,2013-09-20 15:53:00
12:53 PM,87.1,70.0,57,29.98,10.0,ENE,12.7,-,N/A,,Clear,70,2013-09-20 16:53:00
1:53 PM,88.0,70.0,55,29.95,10.0,East,9.2,17.3,N/A,,Partly Cloudy,100,2013-09-20 17:53:00
2:53 PM,89.1,72.0,57,29.92,10.0,NE,6.9,-,N/A,,Scattered Clouds,50,2013-09-20 18:53:00
3:53 PM,87.1,70.0,57,29.91,10.0,East,9.2,-,N/A,,Mostly Cloudy,80,2013-09-20 19:53:00
4:53 PM,89.1,70.0,53,29.90,10.0,NE,10.4,-,N/A,,Scattered Clouds,50,2013-09-20 20:53:00
5:53 PM,88.0,70.0,55,29.89,10.0,ENE,9.2,-,N/A,,Partly Cloudy,70,2013-09-20 21:53:00
6:53 PM,84.9,69.1,59,29.89,10.0,ENE,12.7,-,N/A,,Clear,60,2013-09-20 22:53:00
7:53 PM,82.0,70.0,67,29.89,10.0,ENE,5.8,-,N/A,,Clear,70,2013-09-20 23:53:00
8:53 PM,81.0,69.1,67,29.91,10.0,East,9.2,-,N/A,,Clear,80,2013-09-21 00:53:00
9:53 PM,79.0,69.1,72,29.92,10.0,East,6.9,-,N/A,,Clear,80,2013-09-21 01:53:00
10:53 PM,77.0,70.0,79,29.93,10.0,East,5.8,-,N/A,,Clear,80,2013-09-21 02:53:00
11:53 PM,77.0,70.0,79,29.93,10.0,East,6.9,-,N/A,,Clear,80,2013-09-21 03:53:00